Flag for Germany Weather past 2 weeks in Geldern, North Rhine-Westphalia, Germany

Now
64 °F

Scattered clouds.


Feels Like: 64 °F
Forecast: 57 / 67 °F
Wind: 12 mph from Southwest

Location: Niederrhein

Current Time: Aug 29, 2014 at 12:12:13 PM

Latest Report: Aug 29, 2014 at 11:50 AM


Visibility: N/A

Pressure: 30.01 "Hg

Humidity: 78%

Dew point: 57 °F

Location of GeldernLocation

Historic Weather in Geldern — Graph

°F

Geldern temperature yesterday

Maximum temperature yesterday: 72 °F (at 11:50 AM)
Minimum temperature yesterday: 55 °F (at 4:50 AM)
Average temperature yesterday: 66 °F

Past Weeks' High & Low Weather Summary

 TemperatureHumidityPressure
High72 °F (Aug 27, 6:20 PM)100% (Aug 15, 7:20 AM)30.09 "Hg (Aug 15, 7:20 AM)
Low45 °F (Aug 21, 6:50 AM)43% (Aug 27, 3:20 PM)29.62 "Hg (Aug 26, 4:50 AM)
Average59 °F81%29.91 "Hg
* Reported Aug 14 10:20 AM — Aug 29 10:50 AM, Geldern, Weather by CustomWeather, © 2014

Note: Actual official high and low records may vary slightly from our data, if they occured in-between our weather recording intervals... More about our weather records

Advertising

Geldern weather history for previous 24 hours

 ConditionsComfort  
Time TempWeatherWind HumidityBarometerVisibility
10:50 AM
Aug 29
63 °FPartly sunny.10 mph83%30.01 "HgN/A
10:20 AM64 °FPartly sunny.9 mph83%29.98 "HgN/A
9:50 AM63 °FScattered clouds.10 mph88%29.98 "HgN/A
9:20 AM63 °FPassing clouds.9 mph88%29.98 "HgN/A
8:50 AM61 °FScattered clouds.7 mph94%29.98 "HgN/A
8:20 AM61 °FPassing clouds.8 mph94%29.98 "HgN/A
7:50 AM59 °FPassing clouds.7 mph100%29.98 "HgN/A
7:20 AM57 °FClear.7 mph100%29.95 "Hg10 mi
6:50 AM59 °FPassing clouds.6 mph100%29.98 "HgN/A
6:20 AM59 °FPassing clouds.5 mph94%29.95 "Hg4 mi
5:50 AM59 °FClear.3 mph100%29.95 "Hg4 mi
5:20 AM59 °FClear.5 mph100%29.95 "Hg4 mi
4:50 AM59 °FClear.5 mph100%29.95 "Hg5 mi
11:50 PM
Aug 28
61 °FRain. Passing clouds.6 mph100%29.95 "Hg3 mi
11:20 PM63 °FRain. Partly cloudy.2 mph100%29.95 "Hg2 mi
10:50 PM64 °FLight rain. Passing clouds.6 mph100%29.92 "Hg4 mi
10:20 PM66 °FPartly sunny.5 mph94%29.92 "HgN/A
9:50 PM66 °FClear.9 mph88%29.92 "Hg6 mi
9:20 PM68 °FPartly sunny.3 mph83%29.92 "HgN/A
8:50 PM68 °FScattered clouds.3 mph83%29.92 "Hg6 mi
8:20 PM68 °FScattered clouds.6 mph83%29.92 "HgN/A
7:50 PM70 °FScattered clouds.7 mph78%29.92 "HgN/A
7:20 PM70 °FPassing clouds.6 mph78%29.92 "HgN/A
6:50 PM72 °FSunny.7 mph73%29.92 "Hg10 mi
6:20 PM72 °FPassing clouds.8 mph69%29.92 "HgN/A
5:50 PM72 °FPassing clouds.8 mph69%29.92 "HgN/A
5:20 PM72 °FScattered clouds.10 mph69%29.95 "HgN/A
4:50 PM72 °FScattered clouds.8 mph69%29.95 "HgN/A
4:20 PM70 °FPartly sunny.9 mph69%29.95 "HgN/A
3:50 PM72 °FPartly sunny.8 mph65%29.95 "HgN/A
3:20 PM72 °FScattered clouds.9 mph65%29.95 "HgN/A
2:50 PM72 °FScattered clouds.9 mph65%29.95 "HgN/A
2:20 PM72 °FScattered clouds.9 mph69%29.95 "HgN/A
1:20 PM72 °FPartly sunny.9 mph65%29.95 "HgN/A
12:50 PM72 °FScattered clouds.8 mph65%29.98 "HgN/A
12:20 PM70 °FScattered clouds.9 mph69%29.98 "HgN/A
Weather by CustomWeather, © 2014

See weather overviewHow to use our weather pages